Location: Sears
(37.7625°N, 100.1060°W)
Time: 05:06:07
(UTC+00:00)

X-37B - Pass Details

Date: 05 August 2021
Orbit: 381 x 393 km, 45.0° (Epoch: 29 August)

Event Time Altitude Azimuth Distance (km) Brightness Sun altitude
Exits shadow 10:34:08 - 297° (WNW) 1,434 3.2 -13.6°
Reaches altitude 10° 10:34:15 10° 299° (WNW) 1,396 3.1 -13.6°
Maximum altitude 10:36:47 22° 353° (N) 887 2.7 -13.2°
Drops below altitude 10° 10:39:21 10° 47° (NE) 1,398 4.8 -12.8°
Sets 10:41:42 0° 64° (ENE) 2,252 6.5 -12.4°
